Weather History for Storm Lake, IA

Change the Weather History Date:

Sunday, June 8, 2014

  Actual Average Record
Temperature  
Mean Temperature 64 °F -  
Max Temperature 75 °F 77 °F 95 °F (2004)
Min Temperature 53 °F 57 °F 50 °F (2007)
Degree Days  
Heating Degree Days 1    
Growing Degree Days 14 (Base 50)    
Moisture  
Dew Point 46 °F    
Average Humidity 56    
Maximum Humidity 100    
Minimum Humidity 29    
Precipitation  
Precipitation 0.00 in - - ()
Sea Level Pressure  
Sea Level Pressure 30.06 in    
Wind  
Wind Speed 11 mph (ENE)    
Max Wind Speed 20 mph    
Max Gust Speed 28 mph    
Visibility 10 miles    
Events      
Averages and records for this station are not official NWS values.
T = Trace of Precipitation, MM = Missing Value Source: NWS Daily Summary

Daily Weather History Graph

Daily Weather History Graph

Search for Another Location

Airport:

Trip Planner

Search our weather history database for the weather conditions in past years. The results will help you decide how hot, cold, wet, or windy it might be!

Date:

Astronomy

Jun. 08, 2014 Rise Set
Actual Time 5:43 AM CDT 8:56 PM CDT
Civil Twilight 5:08 AM CDT 9:31 PM CDT
Nautical Twilight 4:24 AM CDT 10:16 PM CDT
Astronomical Twilight 3:30 AM CDT 11:10 PM CDT
Moon 4:10 PM CDT (6/8) 2:43 AM CDT (6/8)
Length of Visible Light 16h 22m
Length of Day
15h 13m
Waxing Gibbous, 77% of the Moon is Illuminated
Jun 8
Waxing Gibbous
Jun 12
Full
Jun 19
Last Quarter
Jun 27
New
Jul 5
First Quarter

Hourly Weather History & Observations

Time (CDT) Temp. Dew Point Humidity Pressure Visibility Wind Dir Wind Speed Gust Speed Precip Events Conditions
12:15 AM 55.4 °F 53.6 °F 94% 30.08 in 10.0 mi North 9.2 mph - N/A   Clear
12:35 AM 55.4 °F 53.6 °F 94% 30.09 in 10.0 mi North 8.1 mph - N/A   Clear
1:15 AM 55.4 °F 53.6 °F 94% 30.09 in 10.0 mi North 10.4 mph - N/A   Clear
1:35 AM 53.6 °F 53.6 °F 100% 30.09 in 10.0 mi North 9.2 mph - N/A   Clear
2:00 AM 53.6 °F 53.6 °F 100% 30.08 in 10.0 mi North 9.2 mph - N/A   Clear
2:15 AM 53.6 °F 53.6 °F 100% 30.08 in 10.0 mi North 9.2 mph - N/A   Clear
2:35 AM 53.6 °F 53.6 °F 100% 30.08 in 10.0 mi North 6.9 mph - N/A   Clear
2:55 AM 53.6 °F 53.6 °F 100% 30.08 in 10.0 mi NNE 10.4 mph - N/A   Clear
3:15 AM 53.6 °F 53.6 °F 100% 30.08 in 10.0 mi North 11.5 mph - N/A   Clear
3:35 AM 53.6 °F 53.6 °F 100% 30.08 in 10.0 mi NNE 11.5 mph - N/A   Clear
4:15 AM 53.6 °F 53.6 °F 100% 30.08 in 10.0 mi NNE 11.5 mph - N/A   Clear
4:35 AM 53.6 °F 53.6 °F 100% 30.08 in 10.0 mi NNE 10.4 mph - N/A   Clear
4:55 AM 53.6 °F 51.8 °F 94% 30.07 in 10.0 mi NNE 12.7 mph - N/A   Clear
5:15 AM 53.6 °F 51.8 °F 94% 30.08 in 10.0 mi NNE 13.8 mph - N/A   Clear
5:35 AM 53.6 °F 51.8 °F 94% 30.08 in 10.0 mi NE 12.7 mph - N/A   Clear
5:55 AM 53.6 °F 50.0 °F 88% 30.09 in 10.0 mi NE 11.5 mph - N/A   Clear
6:15 AM 53.6 °F 50.0 °F 88% 30.10 in 10.0 mi NE 11.5 mph - N/A   Clear
6:35 AM 53.6 °F 50.0 °F 88% 30.10 in 10.0 mi NE 12.7 mph - N/A   Clear
7:15 AM 55.4 °F 50.0 °F 82% 30.11 in 10.0 mi NE 11.5 mph - N/A   Clear
7:35 AM 57.2 °F 48.2 °F 72% 30.11 in 10.0 mi NE 13.8 mph - N/A   Clear
7:55 AM 57.2 °F 50.0 °F 77% 30.13 in 10.0 mi ENE 10.4 mph - N/A   Clear
8:15 AM 59.0 °F 50.0 °F 72% 30.14 in 10.0 mi NE 11.5 mph - N/A   Clear
8:35 AM 60.8 °F 48.2 °F 63% 30.14 in 10.0 mi ENE 10.4 mph - N/A   Clear
8:55 AM 62.6 °F 48.2 °F 59% 30.12 in 10.0 mi ENE 15.0 mph - N/A   Clear
9:35 AM 64.4 °F 46.4 °F 52% 30.12 in 10.0 mi ENE 17.3 mph - N/A   Clear
9:55 AM 66.2 °F 44.6 °F 46% 30.11 in 10.0 mi East 18.4 mph 25.3 mph N/A   Clear
10:15 AM 66.2 °F 42.8 °F 43% 30.12 in 10.0 mi East 13.8 mph 26.5 mph N/A   Clear
10:35 AM 68.0 °F 42.8 °F 40% 30.11 in 10.0 mi East 19.6 mph 27.6 mph N/A   Clear
10:55 AM 68.0 °F 41.0 °F 37% 30.10 in 10.0 mi East 17.3 mph 25.3 mph N/A   Clear
11:15 AM 68.0 °F 41.0 °F 37% 30.10 in 10.0 mi East 18.4 mph 25.3 mph N/A   Clear
11:35 AM 68.0 °F 41.0 °F 37% 30.10 in 10.0 mi East 18.4 mph - N/A   Clear
11:55 AM 69.8 °F 41.0 °F 35% 30.10 in 10.0 mi East 18.4 mph 24.2 mph N/A   Clear
12:15 PM 69.8 °F 39.2 °F 33% 30.10 in 10.0 mi ENE 13.8 mph 23.0 mph N/A   Clear
12:35 PM 69.8 °F 37.4 °F 31% 30.10 in 10.0 mi East 15.0 mph 21.9 mph N/A   Clear
12:55 PM 71.6 °F 37.4 °F 29% 30.10 in 10.0 mi East 15.0 mph - N/A   Clear
1:15 PM 71.6 °F 39.2 °F 31% 30.08 in 10.0 mi East 11.5 mph 21.9 mph N/A   Clear
1:35 PM 71.6 °F 37.4 °F 29% 30.08 in 10.0 mi East 10.4 mph 18.4 mph N/A   Clear
1:55 PM 71.6 °F 39.2 °F 31% 30.07 in 10.0 mi ENE 16.1 mph 21.9 mph N/A   Clear
2:15 PM 73.4 °F 39.2 °F 29% 30.07 in 10.0 mi ESE 9.2 mph 21.9 mph N/A   Clear
2:35 PM 73.4 °F 39.2 °F 29% 30.06 in 10.0 mi East 12.7 mph 26.5 mph N/A   Clear
2:55 PM 73.4 °F 39.2 °F 29% 30.04 in 10.0 mi East 13.8 mph - N/A   Clear
3:15 PM 73.4 °F 41.0 °F 31% 30.04 in 10.0 mi ENE 11.5 mph - N/A   Clear
3:35 PM 73.4 °F 39.2 °F 29% 30.02 in 10.0 mi SE 11.5 mph - N/A   Clear
3:55 PM 73.4 °F 41.0 °F 31% 30.02 in 10.0 mi ESE 10.4 mph 18.4 mph N/A   Clear
4:15 PM 73.4 °F 39.2 °F 29% 30.02 in 10.0 mi East 10.4 mph 18.4 mph N/A   Clear
4:35 PM 75.2 °F 41.0 °F 29% 30.01 in 10.0 mi East 12.7 mph - N/A   Clear
4:55 PM 73.4 °F 39.2 °F 29% 30.02 in 10.0 mi ESE 8.1 mph 15.0 mph N/A   Scattered Clouds
5:15 PM 73.4 °F 39.2 °F 29% 30.01 in 10.0 mi Variable 6.9 mph - N/A   Scattered Clouds
5:35 PM 73.4 °F 41.0 °F 31% 30.01 in 10.0 mi SE 13.8 mph - N/A   Partly Cloudy
5:55 PM 73.4 °F 41.0 °F 31% 30.00 in 10.0 mi ESE 8.1 mph - N/A   Clear
6:15 PM 73.4 °F 41.0 °F 31% 30.00 in 10.0 mi ESE 10.4 mph - N/A   Partly Cloudy
6:35 PM 73.4 °F 39.2 °F 29% 30.01 in 10.0 mi SE 5.8 mph - N/A   Partly Cloudy
6:55 PM 73.4 °F 41.0 °F 31% 30.01 in 10.0 mi East 8.1 mph - N/A   Clear
7:15 PM 71.6 °F 41.0 °F 33% 30.00 in 10.0 mi ESE 5.8 mph - N/A   Clear
7:35 PM 71.6 °F 41.0 °F 33% 30.00 in 10.0 mi East 6.9 mph - N/A   Clear
7:55 PM 69.8 °F 42.8 °F 38% 30.00 in 10.0 mi East 6.9 mph - N/A   Scattered Clouds
8:15 PM 69.8 °F 44.6 °F 40% 30.00 in 10.0 mi East 5.8 mph - N/A   Mostly Cloudy
8:35 PM 68.0 °F 44.6 °F 43% 30.00 in 10.0 mi East 6.9 mph - N/A   Mostly Cloudy
8:55 PM 68.0 °F 44.6 °F 43% 30.00 in 10.0 mi East 5.8 mph - N/A   Mostly Cloudy
9:15 PM 68.0 °F 44.6 °F 43% 30.00 in 10.0 mi ENE 6.9 mph - N/A   Overcast
9:35 PM 68.0 °F 44.6 °F 43% 30.01 in 10.0 mi ENE 6.9 mph - N/A   Overcast
9:55 PM 66.2 °F 46.4 °F 49% 30.01 in 10.0 mi East 6.9 mph - N/A   Overcast
10:15 PM 66.2 °F 46.4 °F 49% 30.01 in 10.0 mi ENE 5.8 mph - N/A   Overcast
10:35 PM 66.2 °F 50.0 °F 56% 30.01 in 10.0 mi ENE 8.1 mph - N/A   Overcast
10:55 PM 66.2 °F 50.0 °F 56% 30.01 in 10.0 mi East 6.9 mph - N/A   Overcast
11:15 PM 66.2 °F 53.6 °F 64% 30.00 in 10.0 mi ESE 5.8 mph - N/A   Overcast
11:35 PM 66.2 °F 55.4 °F 68% 30.00 in 10.0 mi SE 9.2 mph - N/A   Overcast
11:55 PM 66.2 °F 55.4 °F 68% 29.99 in 10.0 mi SE 8.1 mph - N/A   Mostly Cloudy